Tracking 35331 objects as of 15-Sep-2026
HD Live streaming from Space Station
objects crossing your sky now

COSMOS 1813 DEB


COSMOS 1813 DEB is no longer on orbit


NORAD ID: 17488
Int'l Code: 1987-004AC
Launch date: January 15, 1987
Source: Commonwealth of Independent States (former USSR) (CIS)
Launch site: PLESETSK MISSILE AND SPACE COMPLEX (PKMTR)
Decay date: 1988-10-05

Note: This is SATELLITE DEBRIS
Your satellite tracking list
Your tracking list is empty




NASA's NSSDC Master Catalog

Two Line Element Set (TLE):
1 17488U 87004 AC 88278.77714329  .05646799 +22000-5 +41998-2 0  9998
2 17488 072.7728 327.6648 0027012 244.6515 112.9310 16.14373992092629
Source of the keplerian elements: AFSPC